Home > Weather > Dillenburg > Past weeks

Flag for Germany Past Weather in Dillenburg, Hesse, Germany — Yesterday and Last 2 Weeks

Now
86 °F

Sunny.


Feels Like: 86 °F
Forecast: 62 / 88 °F
Wind: 5 mph from North

Location: Hessen

Current Time: Aug 26, 2016 at 3:52:09 PM

Latest Report: Aug 26, 2016 at 3:20 PM


Visibility: 10 mi

Pressure: 30.12 "Hg

Humidity: 43%

Dew Point: 61 °F

Location of DillenburgLocation

Past Weather in Dillenburg — Graph

°F

Dillenburg Temperature Yesterday

Maximum temperature yesterday: 82 °F (at 3:50 PM)
Minimum temperature yesterday: 63 °F (at 7:50 AM)
Average temperature yesterday: 76 °F

High & Low Weather Summary for the Past Weeks

 TemperatureHumidityPressure
High84 °F (Aug 26, 1:20 PM)100% (Aug 11, 7:20 PM)30.39 "Hg (Aug 11, 7:20 PM)
Low50 °F (Aug 11, 7:20 PM)37% (Aug 25, 3:50 PM)29.83 "Hg (Aug 18, 3:50 PM)
Average66 °F70%30.14 "Hg
* Reported Aug 11 2:20 PM — Aug 26 2:20 PM, Dillenburg, Weather by CustomWeather, © 2016

Note: Actual official high and low records may vary slightly from our data, if they occured in-between our weather recording intervals... More about our weather records

Advertising

Dillenburg Weather History for the Previous 24 Hours

Scroll right to see more
 ConditionsComfort  
Time TempWeatherWind HumidityBarometerVisibility
2:20 PM
Fri, Aug 26
84 °FPassing clouds.6 mph48%30.12 "HgN/A
1:50 PM84 °FSunny.5 mph48%30.12 "Hg10 mi
1:20 PM84 °FPassing clouds.7 mph48%30.12 "HgN/A
12:50 PM82 °FPassing clouds.7 mph48%30.12 "HgN/A
12:20 PM81 °FPassing clouds.6 mph51%30.09 "HgN/A
11:50 AM81 °FPassing clouds.6 mph54%30.09 "HgN/A
11:20 AM81 °FPassing clouds.7 mph51%30.09 "HgN/A
10:50 AM79 °FSunny.3 mph58%30.09 "Hg10 mi
10:20 AM77 °FSunny.6 mph61%30.09 "Hg10 mi
9:50 AM75 °FSunny.6 mph61%30.09 "Hg10 mi
9:20 AM75 °FSunny.5 mph57%30.09 "Hg10 mi
8:50 AM73 °FPassing clouds.5 mph53%30.09 "HgN/A
8:20 AM72 °FPassing clouds.5 mph57%30.09 "HgN/A
7:50 AM68 °FSunny.2 mph64%30.09 "Hg10 mi
8:50 PM
Thu, Aug 25
72 °FSunny.8 mph57%30.09 "Hg10 mi
8:20 PM77 °FSunny.7 mph47%30.09 "Hg10 mi
7:50 PM77 °FSunny.9 mph47%30.07 "Hg10 mi
7:20 PM79 °FSunny.10 mph45%30.07 "Hg10 mi
6:50 PM81 °FSunny.9 mph42%30.09 "Hg10 mi
6:20 PM81 °FSunny.12 mph42%30.09 "Hg10 mi
5:50 PM82 °FSunny.10 mph40%30.09 "Hg10 mi
5:20 PM82 °FSunny.13 mph37%30.09 "Hg10 mi
4:50 PM82 °FSunny.12 mph40%30.09 "Hg10 mi
4:20 PM82 °FSunny.12 mph40%30.09 "Hg10 mi
3:50 PM82 °FPassing clouds.13 mph37%30.12 "HgN/A
3:20 PM81 °FSunny.14 mph39%30.12 "Hg10 mi
Weather by CustomWeather, © 2016

See weather overviewHow to use our weather pages